Location: Emory University Observatory
(33.7903°N, 84.3267°W)
Time: 17:34:49
(UTC-05:00)

N. Korean satellite - Pass Details

Date: 13 October 2017
Orbit: 461 x 513 km, 97.2° (Epoch: 17 December)

Event Time Altitude Azimuth Distance (km) Brightness Sun altitude
Rises 19:45:30 0° 168° (SSE) 2,558 10.1 -9.1°
Reaches altitude 10° 19:47:34 10° 169° (SSE) 1,671 9.2 -9.5°
Maximum altitude 19:51:10 87° 257° (WSW) 488 6.6 -10.3°
Drops below altitude 10° 19:54:43 10° 348° (NNW) 1,653 9.4 -11.0°
Sets 19:56:46 0° 349° (N) 2,526 10.3 -11.4°
